GW5434 Weather Reports


time (UTC)temp
F
wind
direction
speed
knots
gust
knots
rain 1hr
in
rain 24hr
in
rain mn
in
humidity
%
barometer
mb
20260903061530 76 114 0.0 0.0 0.00 0.00 0.00 89 1016.5
20260903060020 76 114 0.0 0.0 0.00 0.00 0.00 89 1016.7
20260903054520 77 114 0.0 0.0 0.00 0.00 0.00 88 1016.8
20260903053026 77 115 0.0 0.0 0.00 0.00 0.00 88 1016.9
20260903051532 76 171 0.0 0.0 0.00 0.00 0.00 89 1016.9
20260903050038 77 171 0.0 0.0 0.00 0.00 0.00 88 1017.0
20260903044519 77 166 0.0 0.0 0.00 0.00 0.00 87 1017.0
20260903043003 78 166 0.0 0.0 0.00 0.00 0.00 87 1016.9
20260903041510 78 166 0.0 0.0 0.00 0.00 0.00 86 1016.8
20260903040009 79 166 0.0 0.0 0.00 0.00 0.00 85 1016.9
20260903034526 79 166 0.0 0.0 0.00 0.00 0.00 84 1016.8
20260903033024 80 166 0.0 0.0 0.00 0.00 0.00 82 1016.8
20260903031504 81 166 0.0 0.0 0.00 0.00 0.00 81 1016.9
20260903030009 82 200 0.0 0.0 0.00 0.00 0.00 79 1016.7
20260903024513 83 217 0.0 0.9 0.00 0.00 0.00 78 1016.8
20260903023020 83 131 0.0 1.7 0.00 0.00 0.00 76 1016.7
20260903021528 84 229 0.9 3.5 0.00 0.00 0.00 76 1016.7
20260903020006 84 217 0.9 3.5 0.00 0.00 0.00 75 1016.5
20260903014510 85 207 0.9 4.3 0.00 0.00 0.00 75 1016.5
20260903013014 86 133 1.7 5.2 0.00 0.00 0.00 74 1016.2
20260903011520 86 240 0.9 4.3 0.00 0.00 0.00 73 1016.0
20260903010031 87 191 1.7 3.5 0.00 0.00 0.00 72 1015.8
20260903004508 88 194 0.0 2.6 0.00 0.00 0.00 69 1015.4
20260903003011 89 210 1.7 2.6 0.00 0.00 0.00 67 1015.2
20260903001517 90 90 0.0 7.0 0.00 0.00 0.00 65 1015.2
20260903000023 91 68 0.0 0.0 0.00 0.00 0.00 64 1015.0
20260902234536 94 91 0.0 0.9 0.00 0.00 0.00 60 1014.9
20260902233009 96 97 0.0 2.6 0.00 0.00 0.00 55 1014.9
20260902231525 97 110 0.0 3.5 0.00 0.00 0.00 54 1014.9
20260902230027 97 90 1.7 2.6 0.00 0.00 0.00 49 1014.6
20260902224524 99 143 0.9 2.6 0.00 0.00 0.00 49 1014.7
20260902223030 97 179 0.0 3.5 0.00 0.00 0.00 51 1014.9
20260902221517 97 63 2.6 4.3 0.00 0.00 0.00 48 1014.9
20260902220015 97 123 0.9 4.3 0.00 0.00 0.00 49 1015.1
20260902214520 97 111 2.6 5.2 0.00 0.00 0.00 51 1015.2
20260902213026 97 124 3.5 6.1 0.00 0.00 0.00 49 1015.3
20260902211539 97 89 1.7 4.3 0.00 0.00 0.00 50 1015.5
20260902210011 98 82 0.9 1.7 0.00 0.00 0.00 48 1015.4
20260902204518 98 184 1.7 7.0 0.00 0.00 0.00 47 1015.7
20260902203019 99 228 1.7 6.1 0.00 0.00 0.00 46 1015.8
20260902201534 99 113 0.9 3.5 0.00 0.00 0.00 47 1015.8
20260902200035 98 185 1.7 6.1 0.00 0.00 0.00 49 1016.0
20260902194514 97 94 0.9 7.8 0.00 0.00 0.00 49 1016.2
20260902193017 97 101 0.9 9.6 0.00 0.00 0.00 49 1016.5
20260902191532 97 203 4.3 7.8 0.00 0.00 0.00 50 1016.8
20260902190004 96 144 3.5 7.0 0.00 0.00 0.00 50 1017.1
20260902184508 98 179 1.7 5.2 0.00 0.00 0.00 51 1017.4
20260902183018 97 225 1.7 4.3 0.00 0.00 0.00 53 1017.5
20260902181518 96 75 3.5 7.8 0.00 0.00 0.00 52 1017.7
20260902180024 96 189 1.7 7.0 0.00 0.00 0.00 52 1017.7
20260902174506 95 128 2.6 6.1 0.00 0.00 0.00 56 1017.9
20260902173009 95 27 0.9 7.0 0.00 0.00 0.00 54 1018.0
20260902171515 95 79 2.6 5.2 0.00 0.00 0.00 55 1018.3
20260902170021 95 188 2.6 7.0 0.00 0.00 0.00 58 1018.6
20260902164504 94 173 1.7 5.2 0.00 0.00 0.00 57 1018.8
20260902163004 94 333 0.9 5.2 0.00 0.00 0.00 58 1019.1
20260902161517 93 224 0.9 3.5 0.00 0.00 0.00 59 1019.1
20260902160017 91 338 0.0 3.5 0.00 0.00 0.00 62 1019.3
20260902154528 91 184 0.9 4.3 0.00 0.00 0.00 63 1019.2
20260902153004 90 249 1.7 3.5 0.00 0.00 0.00 67 1019.2
20260902151506 88 20 1.7 2.6 0.00 0.00 0.00 71 1019.3
20260902150014 89 204 0.0 3.5 0.00 0.00 0.00 71 1019.2
20260902144529 87 343 0.9 2.6 0.00 0.00 0.00 75 1019.2
20260902143025 85 293 0.9 2.6 0.00 0.00 0.00 79 1019.2
20260902141510 86 335 0.0 0.0 0.00 0.00 0.00 78 1019.2
20260902140016 83 316 0.0 0.0 0.00 0.00 0.00 81 1019.3
20260902134530 82 325 0.0 0.0 0.00 0.00 0.00 83 1019.2
20260902133023 81 132 0.0 0.0 0.00 0.00 0.00 84 1019.3
20260902131525 80 151 0.0 0.0 0.00 0.00 0.00 87 1019.4
20260902130007 76 117 0.0 0.0 0.00 0.00 0.00 94 1019.2
20260902124511 73 117 0.0 0.0 0.00 0.00 0.00 95 1019.2
20260902123017 72 117 0.0 0.0 0.00 0.00 0.00 94 1018.9
20260902121520 72 117 0.0 0.0 0.00 0.00 0.00 94 1018.7
20260902120027 71 117 0.0 0.0 0.00 0.00 0.00 94 1018.7
20260902114508 71 117 0.0 0.0 0.00 0.00 0.00 94 1018.6
20260902113029 71 117 0.0 0.0 0.00 0.00 0.00 94 1018.5
20260902111521 71 117 0.0 0.0 0.00 0.00 0.00 94 1018.2
20260902110022 71 117 0.0 0.0 0.00 0.00 0.00 94 1018.1
20260902104530 71 117 0.0 0.0 0.00 0.00 0.00 93 1018.1
20260902103020 72 117 0.0 0.0 0.00 0.00 0.00 93 1017.9
20260902101516 72 117 0.0 0.0 0.00 0.00 0.00 93 1017.8
20260902100022 72 117 0.0 0.0 0.00 0.00 0.00 93 1017.7
20260902094528 72 117 0.0 0.0 0.00 0.00 0.00 93 1017.5
20260902093030 72 117 0.0 0.0 0.00 0.00 0.00 93 1017.3
20260902091510 72 117 0.0 0.0 0.00 0.00 0.00 93 1017.2
20260902090020 73 117 0.0 0.0 0.00 0.00 0.00 93 1017.1
20260902084525 73 117 0.0 0.0 0.00 0.00 0.00 93 1017.2
20260902083028 73 117 0.0 0.0 0.00 0.00 0.00 93 1017.0
20260902081531 73 117 0.0 0.0 0.00 0.00 0.00 93 1017.0
20260902080013 73 117 0.0 0.0 0.00 0.00 0.00 93 1017.0
20260902074520 74 117 0.0 0.0 0.00 0.00 0.00 92 1017.0
20260902073025 74 117 0.0 0.0 0.00 0.00 0.00 93 1017.1
20260902071528 74 117 0.0 0.0 0.00 0.00 0.00 92 1017.2
20260902070031 74 117 0.0 0.0 0.00 0.00 0.00 92 1017.0
20260902064515 74 117 0.0 0.0 0.00 0.00 0.00 92 1017.0
20260902063018 74 117 0.0 0.0 0.00 0.00 0.00 91 1017.2